Find Kosmos-1670

NORAD ID: 15930 Int'l Des: 1985-064 Owner: VMF Country: SU operational
LEOCIRCULAR

Current View

Loading 3D Globe...

About Kosmos-1670

Description loading...

Upcoming Passes

Passes for default location (London). Set your location on the main map for personalized predictions.

Altitude History

Loading altitude history...

Two-Line Element Set

1 15930U 85064A 26151.47315117 -.00000040 00000-0 44114-4 0 9998
2 15930 64.9382 183.3225 0052072 43.8067 316.7105 13.83879179 51443
Epoch: May 31, 2026 • Age: 12 hours

Current Status

Altitude 982.2 km
Velocity 7.35 km/s
Sub-Earth Point -55.00°S, 96.84°W
Launch Date Aug 1, 1985
Age 40.8 years
Type other

Technical Details

Classification Payload
Mass 1154.00 kg
Dry Mass 1154.00 kg
Total Mass 4300.00 kg
Length 5.80 m
Diameter 1.30 m
Span 5.80 m
Shape Cyl
Manufacturer KOMET
Bus Type US-A reactor
Phase Status In Orbit
Owner/State VMF/SU

Most Searched